Regional Weather Roundup
Issued by NWS

Home | Current Version | Previous Version | Text Only | Print | Product List | Glossary On
Versions: 1 2 3 4 5 6 7 8 9 10 11 12 13 14 15 16 17 18 19 20 21 22 23 24 25 26 27 28 29 30 31 32 33 34 35 36 37 38 39 40 41 42 43 44 45 46 47 48 49 50
000
ASUS43 KMKX 210600
RWRWI

WISCONSIN REGIONAL WEATHER ROUNDUP
NATIONAL WEATHER SERVICE MILWAUKEE/SULLIVAN WI
1200 AM CST WED FEB 21 2018

NOTE: "FAIR" INDICATES FEW OR NO CLOUDS BELOW 12,000 FEET WITH NO
SIGNIFICANT WEATHER AND/OR OBSTRUCTIONS TO VISIBILITY.

WIZ001-002-006>008-014>016-023>028-210700-
NORTHWEST WISCONSIN

CITY           SKY/WX    TMP DP  RH WIND       PRES   REMARKS
SUPERIOR ARPT  FAIR       8   1  75 W10G16    30.29R WCI  -7
6HR MIN TEMP:   7; 6HR MAX TEMP:  16;

ASHLAND        FAIR       8   3  80 SW8       30.25R WCI  -4
6HR MIN TEMP:   8; 6HR MAX TEMP:  17;

HAYWARD        FAIR      10   3  73 W3        30.25R
6HR MIN TEMP:  10; 6HR MAX TEMP:  17;

SIREN          FAIR       8   1  73 W9        30.30R WCI  -6
CUMBERLAND     FAIR       9   1  72 W12       30.26R WCI  -6
RICE LAKE      FAIR      10   5  77 W7        30.28R WCI   0
CHETEK         FAIR      11   5  76 W8        30.28R WCI  -1
LADYSMITH      FAIR      13   9  81 W6        30.25R WCI   4
EAU CLAIRE     FAIR      13   5  70 W10       30.29R WCI   0
6HR MIN TEMP:  13; 6HR MAX TEMP:  20;

MENOMONIE      FAIR      12   6  74 W13       30.31R WCI  -3
6HR MIN TEMP:  12; 6HR MAX TEMP:  20;

NEW RICHMOND   FAIR       8   1  70 NW12      30.32R WCI  -7
OSCEOLA        FAIR       9   1  69 W9        30.36R WCI  -5
$$

WIZ003>005-009-010-017-018-210700-
NORTH CENTRAL WISCONSIN

CITY           SKY/WX    TMP DP  RH WIND       PRES   REMARKS
MANITOWISH WTR FAIR      11   8  89 W6        30.15R WCI   1
ARBOR VITAE    FLURRIES  17  13  86 NW7       30.14R WCI   7
WOODRUFF       FLURRIES  17  13  86 NW7       30.14R WCI   7
RHINELANDER    CLOUDY    14  10  84 W8        30.16R WCI   3
6HR MIN TEMP:  14; 6HR MAX TEMP:  23;

EAGLE RIVER    LGT SNOW  15  10  80 W7        30.13R WCI   5
6HR MIN TEMP:  15; 6HR MAX TEMP:  22;

LAND O LAKES   LGT SNOW  15  11  86 W3        30.14R
PHILLIPS       FAIR      12   8  85 W3        30.18R
TOMAHAWK       FAIR      13  10  86 W6        30.17R WCI   4
MEDFORD        FAIR      13   9  83 W8        30.19R WCI   2
MERRILL        FAIR      16  11  82 W5        30.20R WCI   9
6HR MIN TEMP:  16; 6HR MAX TEMP:  24;

$$

WIZ029-030-035-036-043>047-210700-
CENTRAL WISCONSIN

CITY           SKY/WX    TMP DP  RH WIND       PRES   REMARKS
WAUSAU         FAIR      17  11  77 NW12      30.19R WCI   4
6HR MIN TEMP:  17; 6HR MAX TEMP:  23; 6HR PCP: TRACE;

MOSINEE        FAIR      18  14  86 W8        30.21  WCI   7
MARSHFIELD     FAIR      16  10  77 NW12      30.22R WCI   3
6HR MIN TEMP:  16; 6HR MAX TEMP:  22;

STEVENS POINT  CLOUDY    16  12  84 NW7       30.21R WCI   6
WAUPACA        CLOUDY    23  16  74 W13G20    30.22R WCI  12
WAUTOMA        FAIR      21  14  74 NW14G24   30.24R WCI   8
6HR MIN TEMP:  21; 6HR MAX TEMP:  27;

WISC RAPIDS    FAIR      18  11  74 NW12      30.25R WCI   5
6HR MIN TEMP:  18; 6HR MAX TEMP:  24;

CAMP DOUGLAS   FAIR      19  13  78 NW13      30.27R WCI   6
6HR MIN TEMP:  19; 6HR MAX TEMP:  25; 6HR PCP: TRACE;

$$

WIZ011>013-019>022-031-037>040-048>050-210700-
NORTHEAST WISCONSIN

CITY           SKY/WX    TMP DP  RH WIND       PRES   REMARKS
ANTIGO         FLURRIES  16  12  82 NW15G23   30.15R WCI   2
SHAWANO        CLOUDY    26  20  77 W10G17    30.18R WCI  17
OCONTO         CLOUDY    28  22  79 W9        30.17R WCI  19
STURGEON BAY   CLOUDY    29  24  82 MISG      30.16R
6HR MIN TEMP:  29; 6HR MAX TEMP:  34;

GREEN BAY      CLOUDY    27  20  75 W14       30.19R WCI  16
6HR MIN TEMP:  27; 6HR MAX TEMP:  33;

MANITOWOC      CLOUDY    28  23  81 NW13      30.19R WCI  17
6HR MIN TEMP:  28; 6HR MAX TEMP:  35;

APPLETON       CLOUDY    23  18  80 W16       30.17R WCI  10
CLINTONVILLE   CLOUDY    23  17  78 W14       30.19R WCI  11
OSHKOSH        CLOUDY    24  19  81 W17       30.20R WCI  11
6HR MIN TEMP:  24; 6HR MAX TEMP:  32;

$$

WIZ032>034-041-042-053>061-210700-
SOUTHWEST WISCONSIN

CITY           SKY/WX    TMP DP  RH WIND       PRES   REMARKS
LA CROSSE      FAIR      18  11  74 NW14      30.33R WCI   4
6HR MIN TEMP:  18; 6HR MAX TEMP:  24;

SPARTA         FAIR      19  16  86 NW8       30.29R WCI   9
VIROQUA        CLOUDY    17  16  95 NW9       30.25R WCI   6
BOSCOBEL       CLOUDY    22  14  71 NW9       30.31R WCI  12
6HR MIN TEMP:  22; 6HR MAX TEMP:  28;

PRAIRIE DU CHI FAIR      20  12  71 NW10G17   30.31R WCI   8
PLATTEVILLE    FAIR      22  19  87 NW12      30.26R WCI  10
$$

WIZ056-057-062-063-064-067-068-210700-
SOUTH CENTRAL WISCONSIN

CITY           SKY/WX    TMP DP  RH WIND       PRES   REMARKS
REEDSBURG      CLOUDY    21  15  78 NW12      30.25R WCI   9
6HR MIN TEMP:  21; 6HR MAX TEMP:  27;

BARABOO/DELLS  CLOUDY    22  17  80 NW6       30.23R WCI  14
LONE ROCK      NOT AVBL
MINERAL POINT  CLOUDY    25  21  86 NW12      30.22R WCI  14
MADISON        CLOUDY    24  18  77 NW14      30.24R WCI  12
6HR MIN TEMP:  24; 6HR MAX TEMP:  32;

MIDDLETON      CLOUDY    27  22  81 NW16      30.22R WCI  14
WATERTOWN      CLOUDY    27  24  87 NW13G18   30.20R WCI  16
MONROE         CLOUDY    27  21  80 NW8       30.21R WCI  18
JANESVILLE     CLOUDY    30  27  86 NW13      30.20R WCI  20
$$

WIZ051-052-058>065-066-070>072-210700-
SOUTHEAST WISCONSIN

CITY           SKY/WX    TMP DP  RH WIND       PRES   REMARKS
MILWAUKEE      CLOUDY    31  25  78 NW13      30.19R WCI  21
6HR MIN TEMP:  31; 6HR MAX TEMP:  39;

WAUKESHA       CLOUDY    28  23  80 NW10      30.20R WCI  19
MILWAUKEE/TIMM CLOUDY    30  21  69 NW13      30.20R WCI  20
RACINE         CLOUDY    31  26  82 NW8       30.20R WCI  23
6HR MIN TEMP:  31; 6HR MAX TEMP:  38; 6HR PCP: TRACE;

BURLINGTON     CLOUDY    30  24  79 NW10      30.19R WCI  21
KENOSHA        CLOUDY    32  25  75 NW10G18   30.18R WCI  24
6HR MIN TEMP:  32; 6HR MAX TEMP:  37; 6HR PCP:  0.01;

FOND DU LAC    CLOUDY    26  19  74 NW17      30.21R WCI  13
6HR MIN TEMP:  26; 6HR MAX TEMP:  34;

SHEBOYGAN      CLOUDY    28  22  78 NW12      30.19R WCI  18
6HR MIN TEMP:  28; 6HR MAX TEMP:  35;

WEST BEND      CLOUDY    28  25  86 NW13      30.19R WCI  18
JUNEAU         CLOUDY    25  21  85 NW8       30.22R WCI  16
$$

LSZ147-162-210700-
LAKE SUPERIOR

STATION/POSITION TIME  TEMP    WIND        PRES    WAVE
                       AIR SEA DIR/SP/G            HT/PER
                 (UTC) (F)     (DEG/KT/KT) (MB)    (FT/S)
DEVILS ISLAND    0500   17     300/  9/ 12 1023.9R
SAXON HARBOR     0530   15     210/  5/  9 1023.4R
$$

LMZ867-665-643>646-210700-
LAKE MICHIGAN

STATION/POSITION TIME  TEMP    WIND        PRES    WAVE
                       AIR SEA DIR/SP/G            HT/PER
                 (UTC) (F)     (DEG/KT/KT) (MB)    (FT/S)
NORTHPORT PIER   0540   28                 1020.7R
KEWAUNEE LAKESHO 0530   29     280/  9/ 13 1020.5R
SHEBOYGAN LAKESH 0500   29     300/ 16/ 19 1021.9R
PORT WASHINGTON  0530   29     310/  5/ 13 1023.0R
MILWAUKEE LAKESH 0530   30     320/ 12/ 14   N/A
KENOSHA   LAKESH 0500   33     320/  5/  9 1021.7
$$

TC  - TEMPERATURE IN CELSIUS
VSB - VISIBILITY IN STATUTE MILES
WCI - WIND CHILL INDEX
HX  - HEAT INDEX





USA.gov is the U.S. government's official web portal to all federal, state and local government web resources and services.